DW9584 Weather Reports


time (UTC)temp
C
wind
direction
speed
KPH
gust
KPH
rain 1hr
cm
rain 24hr
cm
rain mn
cm
humidity
%
barometer
mb
20260503000029 12 295 1.6 8.0 0.00 0.00 0.00 45 1011.5
20260502234542 12 311 0.0 6.4 0.00 0.00 0.00 42 1011.2
20260502233015 12 322 3.2 6.4 0.00 0.00 0.00 40 1011.2
20260502231515 12 309 0.0 6.4 0.00 0.00 0.00 40 1011.1
20260502230014 13 290 0.0 11.3 0.00 0.00 0.00 39 1011.3
20260502224509 13 303 3.2 16.1 0.00 0.00 0.00 38 1011.3
20260502223037 13 210 0.0 4.8 0.00 0.00 0.00 39 1011.2
20260502221526 14 312 1.6 9.7 0.00 0.00 0.00 38 1011.1
20260502220026 14 243 0.0 6.4 0.00 0.00 0.00 39 1011.1
20260502214524 13 267 3.2 8.0 0.00 0.00 0.00 38 1011.1
20260502213019 15 269 1.6 12.9 0.00 0.00 0.00 39 1011.0
20260502211523 14 342 1.6 8.0 0.00 0.00 0.00 38 1010.8
20260502210014 15 323 0.0 11.3 0.00 0.00 0.00 38 1010.7
20260502204512 15 300 1.6 6.4 0.00 0.00 0.00 40 1010.6
20260502203043 14 312 1.6 9.7 0.00 0.00 0.00 41 1010.6
20260502201526 14 256 1.6 11.3 0.00 0.00 0.00 37 1010.7
20260502200026 15 173 1.6 9.7 0.00 0.00 0.00 40 1010.9
20260502194527 15 143 3.2 12.9 0.00 0.00 0.00 41 1011.1
20260502193024 14 181 1.6 12.9 0.00 0.00 0.00 41 1011.4
20260502191521 15 44 1.6 9.7 0.00 0.00 0.00 41 1011.7
20260502190029 15 12 1.6 6.4 0.00 0.00 0.00 41 1011.9
20260502184527 15 136 0.0 9.7 0.00 0.00 0.00 36 1012.0
20260502183028 15 165 1.6 9.7 0.00 0.00 0.00 42 1012.3
20260502181525 15 30 1.6 9.7 0.00 0.00 0.00 41 1012.4
20260502163038 13 333 1.6 8.0 0.00 0.00 0.00 45 1013.1
20260502161536 13 73 3.2 8.0 0.00 0.00 0.00 45 1013.3
20260502151505 11 94 1.6 14.5 0.00 0.00 0.00 58 1013.2
20260502123028 10 58 1.6 16.1 0.00 0.00 0.00 75 1013.3
20260502121524 10 219 1.6 11.3 0.00 0.00 0.00 76 1013.2
20260502114511 10 91 0.0 6.4 0.00 0.00 0.00 77 1012.9
20260502113009 10 259 0.0 4.8 0.00 0.00 0.00 78 1012.8
20260502111507 10 264 0.0 6.4 0.00 0.00 0.00 80 1012.9
20260502110027 9 305 0.0 3.2 0.00 0.00 0.00 83 1012.8
20260502104522 9 284 0.0 3.2 0.00 0.00 0.00 85 1012.5
20260502103020 8 244 0.0 0.0 0.00 0.00 0.00 88 1012.4
20260502101520 8 244 0.0 0.0 0.00 0.00 0.00 86 1012.1
20260502091508 10 244 0.0 0.0 0.00 0.00 0.00 81 1012.3
20260502071510 11 219 0.0 3.2 0.00 0.00 0.00 73 1012.0
20260502070015 10 255 0.0 3.2 0.00 0.00 0.00 76 1012.0
20260502064508 10 261 0.0 0.0 0.00 0.00 0.00 78 1012.2
20260502063012 10 261 0.0 0.0 0.00 0.00 0.00 79 1012.3
20260502061510 10 261 0.0 0.0 0.00 0.00 0.00 78 1012.0
20260502060012 10 261 0.0 0.0 0.00 0.00 0.00 76 1012.3
20260502054514 10 261 0.0 0.0 0.00 0.00 0.00 75 1012.4
20260502053014 11 261 0.0 3.2 0.00 0.00 0.00 74 1012.6
20260502051519 11 261 0.0 3.2 0.00 0.00 0.00 73 1012.3
20260502050015 11 261 0.0 1.6 0.00 0.00 0.00 72 1012.7
20260502044516 11 261 0.0 3.2 0.00 0.00 0.00 73 1012.5
20260502043016 10 190 0.0 3.2 0.00 0.00 0.00 76 1012.6
20260502041516 10 183 0.0 0.0 0.00 0.00 0.00 77 1012.4
20260502040018 10 183 0.0 0.0 0.00 0.00 0.00 77 1012.3
20260502034517 10 183 0.0 0.0 0.00 0.00 0.00 77 1012.3
20260502033016 10 183 0.0 0.0 0.00 0.00 0.00 76 1012.2
20260502031512 11 183 0.0 0.0 0.00 0.00 0.00 74 1012.2
20260502030018 11 183 0.0 3.2 0.00 0.00 0.00 73 1011.9
20260502024525 11 183 0.0 0.0 0.00 0.00 0.00 72 1012.4
20260502023020 11 183 0.0 3.2 0.00 0.00 0.00 72 1012.5
20260502021521 11 146 0.0 0.0 0.00 0.00 0.00 70 1012.9
20260502020022 11 219 0.0 0.0 0.00 0.00 0.00 69 1012.6
20260502014521 11 219 0.0 3.2 0.00 0.00 0.00 67 1012.3
20260502013020 11 269 0.0 3.2 0.00 0.00 0.00 66 1012.5
20260502011523 12 119 0.0 3.2 0.00 0.00 0.00 63 1012.4
20260502010027 12 262 0.0 3.2 0.00 0.00 0.00 61 1012.2
20260502004524 12 266 0.0 4.8 0.00 0.00 0.00 59 1012.0
20260502003021 13 243 0.0 6.4 0.00 0.00 0.00 57 1011.7
20260502001509 13 246 0.0 3.2 0.00 0.00 0.00 54 1011.4